Showing default

GSAT 29, 43698

Orbit data source: Space-Track

GSAT 29, 43698 is a payload satellite owned by ISRO (IN) in GEO that was launched on Wed, 14 Nov 2018 UTC via a GSLV MK III launch vehicle from the Sirharikota (SRI). Payload-class satellites include a variety of spacecraft equipped with specific instruments for various scientific and technological missions. These include communications satellites like Starlink; space stations such as the ISS; scientific satellites like the Hubble; Earth observation satellites from companies like Planet Labs, Umbra, and HawkEye 360; GPS; miniature CubeSats for education and research; and military/defense satellites.

Not visible in the next 10 days
Identifier
43698, 2018-089A
Orbit
GEO
Country
Flag of ININ / IND
Related business
Manufacturer
ISRO SAC/Banga
Mission
Operational Civil Communications
Bus & Motor
I3K, ISRO LAM
Mass
3,423 kg wet, ~1,500 kg dry
Launch date (UTC)
2018-11-14 (7 years ago)
Launch vehicle
GSLV MK III
Launch site
Sirharikota (SRI)
Object type
Payload
Rocket body
Debris
Shape & HBR
Box + 2 Pan, 10.0 m
Radar Cross Section
16.006 m², Large (>1 m²)

Expand to show TLE details & history
Last TLE update: 5 hours ago

TLE from 5 hours ago
0 GSAT 29
1 43698U 18089A   25308.48299064  .00000098  00000-0  00000+0 0  9992
2 43698   0.0410 264.2933 0003576 324.2605  44.3811  1.00268403 25540
Epoch: 2025-11-04T11:35Z
TLE epoch observation values (Epoch: 2025-11-04T11:35:30.391Z)
Latitude
0.01271°
Longitude
55.078°
Altitude
35,776.21 km
Speed
3.075 km/s
True Right ascension
18h 11m 41s
True Declination
0° 00' 46"
Sunlit
Object was in daylight at epoch
Visualization orbit readout
Latitude
Unknown
Longitude
Unknown
Altitude
Unknown
Speed
Unknown
Apparent Right ascension
Unknown
Apparent Declination
Unknown
Sunlit
N/A
Visualization observer readout
Local Sidereal Time
12:25:46
Azimuth
Unknown
Elevation
Unknown
Doppler factor
Unknown
Orbital elements
Apogee altitude
35,803.692 km
Perigee altitude
35,773.535 km
Semi-major axis
42,166.75 km
Eccentricity
0.00036
Inclination
0.041°
RAAN
264.2933°
Arg. of periapsis
324.2605°
True anomaly
44.40977°
Mean anomaly
44.3811°
Eccentric anomaly
44.39543°
Mean motion
0.25066 °/min
Orbital period
1,436.2 mins
BSTAR
0
Loading maneuver chart data...
Computing Atmospheric mass density...
Loading historical data...
Loading historical data...
Loading historical data...
Loading historical data...
Loading historical data...
Loading historical data...
Loading historical data...
Other satellites on launch #89 in the year 2018 (2018-11-14 UTC)

Documentation

Showing up to 5 results
|